Location: Tel Aviv
(32.0670°N, 34.7670°E)
Time: 05:04:19
(UTC+02:00)

CUTE-I - Visible Passes

Search period start: 15 December 2025 00:00
Search period end: 25 December 2025 00:00
Orbit: 804 x 818 km, 98.7° (Epoch: 14 December)

Date Brightness Start Highest point End Pass type
(mag) Time Alt. Az. Time Alt. Az. Time Alt. Az.
15 Dec ? 05:28:25 10° NNE 05:33:27 41° E 05:38:27 10° S visible
15 Dec ? 18:25:47 10° SW 18:29:25 19° W 18:33:05 10° NW visible
16 Dec ? 05:05:44 10° NE 05:10:00 24° E 05:14:14 10° SSE visible
16 Dec ? 18:01:15 10° SSW 18:05:56 33° W 18:10:39 10° NW visible
17 Dec ? 04:43:51 10° ENE 04:46:28 14° E 04:49:04 10° ESE visible
17 Dec ? 17:37:20 10° S 17:42:30 57° W 17:47:42 10° NNW visible
18 Dec ? 05:57:58 10° NNE 06:03:20 84° ESE 06:08:39 10° SSW visible
18 Dec ? 17:13:53 10° SSE 17:19:09 83° ENE 17:24:28 10° N visible
19 Dec ? 05:34:48 10° NNE 05:39:58 48° E 05:45:06 10° S visible
19 Dec ? 18:32:46 10° SW 18:35:56 16° W 18:39:09 10° WNW visible
20 Dec ? 05:11:58 10° NE 05:16:31 28° E 05:21:02 10° SSE visible
20 Dec ? 18:07:57 10° SSW 18:12:25 28° W 18:16:56 10° NW visible
21 Dec ? 04:49:47 10° ENE 04:53:01 16° E 04:56:13 10° SE visible
21 Dec ? 17:43:54 10° S 17:48:59 49° W 17:54:06 10° NNW visible
22 Dec ? 06:04:26 10° NNE 06:09:48 84° WNW 06:15:08 10° SSW visible
22 Dec ? 17:20:20 10° SSE 17:25:36 85° WSW 17:30:56 10° NNW visible
23 Dec ? 05:41:11 10° NNE 05:46:27 56° E 05:51:40 10° S visible
23 Dec ? 18:39:52 10° WSW 18:42:28 14° W 18:45:04 10° WNW visible
24 Dec ? 05:18:15 10° NE 05:23:01 32° E 05:27:45 10° SSE visible
24 Dec ? 18:14:42 10° SSW 18:18:55 24° W 18:23:10 10° NW visible
